Date,TemperatureHighF,TemperatureAvgF,TemperatureLowF,DewpointHighF,DewpointAvgF,DewpointLowF,HumidityHigh,HumidityAvg,HumidityLow,PressureMaxIn,PressureMinIn,WindSpeedMaxMPH,WindSpeedAvgMPH,GustSpeedMaxMPH,PrecipitationSumIn
2013-9-1,107.8,88.3,75.4,72.2,64.6,52.1,87,53,20,29.48,29.33,9,2,9,0.00
2013-9-2,104.5,86.0,75.0,73.5,66.6,52.3,88,58,22,29.54,29.39,12,2,12,0.00
2013-9-3,108.3,86.3,73.0,71.7,64.0,48.1,87,56,18,29.52,29.40,14,1,14,0.00
2013-9-4,104.2,84.7,72.1,73.6,67.6,57.5,94,63,26,29.60,29.49,8,1,8,0.00
2013-9-5,106.5,85.6,72.1,72.2,64.8,49.6,93,58,20,29.66,29.53,8,1,8,0.00
2013-9-6,106.0,86.4,72.3,74.0,60.9,35.9,95,54,14,29.65,29.48,11,1,11,0.00
2013-9-7,106.0,83.2,71.9,74.0,65.2,38.8,93,64,15,29.61,29.46,17,2,17,0.00
2013-9-8,104.7,82.8,68.2,73.2,62.0,33.8,100,62,15,29.57,29.42,8,1,8,0.00
2013-9-9,102.2,82.7,68.5,71.8,63.7,50.3,96,61,24,29.58,29.47,11,2,11,0.00
2013-9-10,98.4,81.2,71.4,73.1,65.8,52.9,95,66,27,29.66,29.55,6,1,6,0.00
2013-9-11,103.1,81.1,70.7,73.7,65.7,48.4,100,69,20,29.68,29.53,17,2,17,0.00
2013-9-12,99.1,81.2,69.4,77.6,66.3,54.5,100,68,27,29.64,29.47,7,1,7,0.00
2013-9-13,103.3,83.2,69.6,68.3,62.6,46.2,88,58,21,29.53,29.36,13,2,13,0.00
2013-9-14,98.4,83.5,72.3,68.1,61.0,52.3,79,52,26,29.52,29.41,11,3,11,0.00
2013-9-15,103.6,83.2,71.2,65.3,59.6,50.9,69,50,24,29.59,29.49,9,2,9,0.00
2013-9-16,103.3,83.7,71.2,73.0,63.7,51.6,92,58,23,29.65,29.51,8,1,8,0.00
2013-9-17,101.1,84.3,72.3,70.7,62.2,51.9,83,54,25,29.64,29.48,8,1,8,0.00
2013-9-18,102.4,85.0,73.7,70.5,62.1,46.7,79,53,20,29.58,29.43,8,1,8,0.00
2013-9-19,100.6,82.1,73.9,73.8,69.2,62.2,93,69,33,29.56,29.41,8,2,8,0.20
2013-9-20,76.4,72.6,68.9,75.5,72.1,68.9,100,98,87,29.48,29.33,9,2,12,3.07
2013-9-21,85.6,72.3,64.4,69.2,60.8,48.6,100,73,37,29.48,29.37,13,4,13,0.07
2013-9-22,86.2,69.0,57.0,57.1,48.7,29.9,87,57,18,29.48,29.34,12,3,12,0.00
2013-9-23,94.4,72.8,57.7,65.9,55.8,46.5,83,61,25,29.42,29.30,7,1,7,0.00
2013-9-24,95.7,78.7,66.9,67.2,57.3,37.0,89,57,18,29.45,29.37,12,2,12,0.00
2013-9-25,97.3,77.0,60.6,59.7,44.7,19.3,84,44,11,29.45,29.34,8,1,8,0.00
2013-9-26,97.1,77.6,62.2,61.8,53.6,45.0,80,50,21,29.48,29.36,9,1,9,0.00
2013-9-27,93.0,77.8,64.7,72.0,64.9,58.0,95,68,40,29.52,29.43,8,1,8,0.00
2013-9-28,93.5,75.8,70.0,77.3,70.9,64.8,100,86,55,29.58,29.45,9,1,9,1.26
2013-9-29,75.4,70.1,67.1,73.1,69.3,67.1,100,97,84,29.58,29.46,6,1,6,0.20
2013-9-30,91.6,75.6,67.1,72.7,69.4,65.5,100,84,48,29.48,29.37,5,0,5,0.00